This is the latest recevied weather packets stored in our database for station/object K8WEH. If no packets are shown the sender has not sent any weather packets the latest 10 day(s).
| Time | Temp. | Humidity | Pressure | Rain* | Wind** | Luminosity | Snow |
|---|---|---|---|---|---|---|---|
| 1778100034 | 14.44° C | 65% | 1013.4 hPa | 0 mm | - | - | - |
| 1778099735 | 14.44° C | 66% | 1013.5 hPa | 0 mm | - | - | - |
| 1778099433 | 15° C | 71% | 1013.7 hPa | 0 mm | - | - | - |
| 1778099133 | 15° C | 68% | 1013.5 hPa | 0 mm | - | - | - |
| 1778098832 | 15° C | 67% | 1013.4 hPa | 0 mm | - | - | - |
| 1778098532 | 15° C | 64% | 1013.5 hPa | 0 mm | - | - | - |
| 1778098231 | 15° C | 69% | 1013.6 hPa | 0 mm | - | - | - |
| 1778097931 | 15° C | 66% | 1013.7 hPa | 0 mm | - | - | - |
| 1778097632 | 15° C | 64% | 1013.7 hPa | 0 mm | - | - | - |
| 1778097331 | 15° C | 64% | 1013.7 hPa | 0 mm | - | - | - |
| 1778097033 | 15.56° C | 65% | 1013.8 hPa | 0 mm | - | - | - |
| 1778096736 | 15.56° C | 69% | 1013.6 hPa | 0 mm | - | - | - |
| 1778096430 | 15° C | 67% | 1013.7 hPa | 0 mm | - | - | - |
| 1778096129 | 15° C | 67% | 1013.4 hPa | 0 mm | - | - | - |
| 1778095833 | 15° C | 70% | 1013.6 hPa | 0 mm | - | - | - |
| 1778095529 | 15° C | 71% | 1013.3 hPa | 0 mm | - | - | - |
| 1778095229 | 15° C | 67% | 1013.3 hPa | 0 mm | - | - | - |
| 1778094929 | 15° C | 69% | 1013.4 hPa | 0 mm | - | - | - |
| 1778094628 | 15.56° C | 71% | 1013.3 hPa | 0 mm | - | - | - |
| 1778094328 | 15° C | 71% | 1013.3 hPa | 0 mm | - | - | - |
| 1778094026 | 15° C | 70% | 1013 hPa | 0 mm | - | - | - |
| 1778093725 | 15° C | 72% | 1012.9 hPa | 0 mm | - | - | - |
| 1778093423 | 14.44° C | 73% | 1013 hPa | 0 mm | - | - | - |
| 1778093125 | 14.44° C | 74% | 1013.2 hPa | 0 mm | - | - | - |
| 1778092822 | 13.89° C | 74% | 1013.2 hPa | 0 mm | - | - | - |
* Rain latest hour (hover to see other rain measurements)
** Current wind speed in m/s (hover to see current wind gust speed)